Time,TemperatureF,DewpointF,PressureIn,WindDirection,WindDirectionDegrees,WindSpeedMPH,WindSpeedGustMPH,Humidity,HourlyPrecipIn,Conditions,Clouds,dailyrainin,SoftwareType,DateUTC
2013-02-23 00:00:00,19.7,18.3,29.86,West,273,0.0,0.0,94,0.00,,OVC034,0.00,VWS V14.01,2013-02-23 06:00:00,
2013-02-23 00:05:00,19.6,18.2,29.86,WSW,253,0.0,0.0,94,0.00,,OVC034,0.00,VWS V14.01,2013-02-23 06:05:00,
2013-02-23 00:10:00,19.1,17.4,29.86,WSW,253,0.0,0.0,93,0.00,,OVC034,0.00,VWS V14.01,2013-02-23 06:10:00,
2013-02-23 00:15:00,18.6,16.9,29.86,West,259,0.0,0.0,93,0.00,,OVC034,0.00,VWS V14.01,2013-02-23 06:15:00,
2013-02-23 00:20:00,18.3,16.9,29.86,WSW,255,0.0,1.0,94,0.00,,OVC034,0.00,VWS V14.01,2013-02-23 06:20:00,
2013-02-23 00:25:00,18.1,16.7,29.86,West,270,2.0,3.0,94,0.00,,OVC034,0.00,VWS V14.01,2013-02-23 06:25:00,
2013-02-23 00:30:00,18.3,16.9,29.86,West,273,2.0,2.0,94,0.00,,OVC034,0.00,VWS V14.01,2013-02-23 06:30:00,
2013-02-23 00:35:00,18.5,17.1,29.86,West,267,2.0,3.0,94,0.00,,BKN032,0.00,VWS V14.01,2013-02-23 06:35:00,
2013-02-23 00:40:00,18.9,17.7,29.86,West,270,2.0,3.0,95,0.00,,BKN032,0.00,VWS V14.01,2013-02-23 06:40:00,
2013-02-23 00:45:00,19.0,17.6,29.86,West,263,2.0,3.0,94,0.00,,BKN032,0.00,VWS V14.01,2013-02-23 06:45:00,
2013-02-23 00:50:00,19.0,17.6,29.86,West,274,1.0,3.0,94,0.00,,SCT032,0.00,VWS V14.01,2013-02-23 06:50:00,
2013-02-23 00:55:00,18.8,17.4,29.86,West,279,1.0,3.0,94,0.00,,SCT032,0.00,VWS V14.01,2013-02-23 06:55:00,
2013-02-23 01:00:00,18.8,17.4,29.86,WSW,250,1.0,1.0,94,0.00,,SCT032,0.00,VWS V14.01,2013-02-23 07:00:00,
2013-02-23 01:05:00,18.9,17.5,29.86,WSW,254,1.0,2.0,94,0.00,,SCT032,0.00,VWS V14.01,2013-02-23 07:05:00,
2013-02-23 01:10:00,18.7,17.0,29.86,West,264,1.0,2.0,93,0.00,,SCT032,0.00,VWS V14.01,2013-02-23 07:10:00,
2013-02-23 01:15:00,18.6,17.2,29.86,WSW,253,2.0,2.0,94,0.00,,SCT032,0.00,VWS V14.01,2013-02-23 07:15:00,
2013-02-23 01:20:00,18.6,17.2,29.86,WSW,253,2.0,3.0,94,0.00,,SCT032,0.00,VWS V14.01,2013-02-23 07:20:00,
2013-02-23 01:25:00,18.5,17.1,29.86,West,276,1.0,4.0,94,0.00,,SCT032,0.00,VWS V14.01,2013-02-23 07:25:00,
2013-02-23 01:30:00,18.2,16.5,29.86,West,264,2.0,3.0,93,0.00,,SCT032,0.00,VWS V14.01,2013-02-23 07:30:00,
2013-02-23 01:35:00,18.2,16.8,29.86,West,262,3.0,3.0,94,0.00,,OVC090,0.00,VWS V14.01,2013-02-23 07:35:00,
2013-02-23 01:40:00,18.3,16.9,29.86,WNW,289,3.0,5.0,94,0.00,,OVC090,0.00,VWS V14.01,2013-02-23 07:40:00,
2013-02-23 01:45:00,18.5,17.1,29.86,West,271,5.0,5.0,94,0.00,,OVC090,0.00,VWS V14.01,2013-02-23 07:45:00,
2013-02-23 01:50:00,18.7,17.3,29.86,West,262,3.0,6.0,94,0.00,,OVC090,0.00,VWS V14.01,2013-02-23 07:50:00,
2013-02-23 01:55:00,18.9,17.5,29.86,West,262,3.0,6.0,94,0.00,,OVC090,0.00,VWS V14.01,2013-02-23 07:55:00,
2013-02-23 02:00:00,19.0,17.6,29.85,WNW,283,2.0,3.0,94,0.00,,OVC090,0.00,VWS V14.01,2013-02-23 08:00:00,
2013-02-23 02:05:00,19.1,17.7,29.85,West,271,2.0,4.0,94,0.00,,OVC090,0.00,VWS V14.01,2013-02-23 08:05:00,
2013-02-23 02:10:00,19.4,18.2,29.85,WNW,283,2.0,4.0,95,0.00,,OVC090,0.00,VWS V14.01,2013-02-23 08:10:00,
2013-02-23 02:15:00,19.5,18.1,29.85,WNW,289,2.0,4.0,94,0.00,,OVC090,0.00,VWS V14.01,2013-02-23 08:15:00,
2013-02-23 02:20:00,19.7,18.3,29.85,West,263,1.0,4.0,94,0.00,,OVC090,0.00,VWS V14.01,2013-02-23 08:20:00,
2013-02-23 02:25:00,19.8,18.6,29.85,WNW,286,0.0,4.0,95,0.00,,OVC090,0.00,VWS V14.01,2013-02-23 08:25:00,
2013-02-23 02:30:00,20.0,18.8,29.85,West,280,0.0,0.0,95,0.00,,OVC090,0.00,VWS V14.01,2013-02-23 08:30:00,
2013-02-23 02:35:00,20.1,18.6,29.85,WNW,289,0.0,1.0,94,0.00,,OVC027,0.00,VWS V14.01,2013-02-23 08:35:00,
2013-02-23 02:40:00,20.1,18.6,29.85,WNW,289,0.0,1.0,94,0.00,,OVC027,0.00,VWS V14.01,2013-02-23 08:40:00,
2013-02-23 02:45:00,20.1,18.6,29.85,WNW,291,0.0,1.0,94,0.00,,OVC027,0.00,VWS V14.01,2013-02-23 08:45:00,
2013-02-23 02:50:00,20.1,18.6,29.85,West,276,0.0,1.0,94,0.00,,OVC025,0.00,VWS V14.01,2013-02-23 08:50:00,
2013-02-23 02:55:00,20.2,18.8,29.84,WNW,284,0.0,1.0,94,0.00,,OVC025,0.00,VWS V14.01,2013-02-23 08:55:00,
2013-02-23 03:00:00,20.2,18.8,29.84,WNW,284,0.0,0.0,94,0.00,,OVC025,0.00,VWS V14.01,2013-02-23 09:00:00,
2013-02-23 03:05:00,20.2,18.8,29.84,West,273,0.0,0.0,94,0.00,,OVC025,0.00,VWS V14.01,2013-02-23 09:05:00,
2013-02-23 03:10:00,20.2,18.8,29.84,West,271,3.0,3.0,94,0.00,,OVC025,0.00,VWS V14.01,2013-02-23 09:10:00,
2013-02-23 03:15:00,20.2,18.8,29.84,West,276,2.0,3.0,94,0.00,,OVC025,0.00,VWS V14.01,2013-02-23 09:15:00,
2013-02-23 03:20:00,20.2,18.8,29.84,West,267,2.0,3.0,94,0.00,,OVC025,0.00,VWS V14.01,2013-02-23 09:20:00,
2013-02-23 03:25:00,20.3,19.1,29.84,West,277,2.0,3.0,95,0.00,,OVC025,0.00,VWS V14.01,2013-02-23 09:25:00,
2013-02-23 03:30:00,20.4,19.2,29.84,WNW,282,1.0,2.0,95,0.00,,OVC025,0.00,VWS V14.01,2013-02-23 09:30:00,
2013-02-23 03:34:00,20.4,19.2,29.84,West,278,1.0,2.0,95,0.00,,OVC014,0.00,VWS V14.01,2013-02-23 09:34:00,
2013-02-23 03:39:00,20.5,19.3,29.84,West,270,0.0,2.0,95,0.00,,OVC014,0.00,VWS V14.01,2013-02-23 09:39:00,
2013-02-23 03:44:00,20.6,19.4,29.84,West,267,1.0,2.0,95,0.00,,OVC014,0.00,VWS V14.01,2013-02-23 09:44:00,
2013-02-23 03:49:00,20.6,19.4,29.84,West,269,1.0,2.0,95,0.00,,OVC012,0.00,VWS V14.01,2013-02-23 09:49:00,
2013-02-23 03:54:00,20.7,19.5,29.84,West,270,1.0,2.0,95,0.00,,OVC012,0.00,VWS V14.01,2013-02-23 09:54:00,
2013-02-23 03:59:00,20.8,19.6,29.84,West,277,0.0,2.0,95,0.00,,OVC012,0.00,VWS V14.01,2013-02-23 09:59:00,
2013-02-23 04:04:00,20.8,19.6,29.84,WSW,256,1.0,2.0,95,0.00,,OVC012,0.00,VWS V14.01,2013-02-23 10:04:00,
2013-02-23 04:09:00,20.8,19.6,29.84,WSW,257,2.0,2.0,95,0.00,,OVC012,0.00,VWS V14.01,2013-02-23 10:09:00,
2013-02-23 04:14:00,20.9,19.7,29.84,West,262,1.0,2.0,95,0.00,,OVC012,0.00,VWS V14.01,2013-02-23 10:14:00,
2013-02-23 04:19:00,20.9,19.7,29.84,West,278,1.0,2.0,95,0.00,,OVC012,0.00,VWS V14.01,2013-02-23 10:19:00,
2013-02-23 04:24:00,21.0,19.8,29.84,West,276,1.0,2.0,95,0.00,,OVC012,0.00,VWS V14.01,2013-02-23 10:24:00,
2013-02-23 04:29:00,21.0,19.8,29.84,West,264,1.0,2.0,95,0.00,,OVC012,0.00,VWS V14.01,2013-02-23 10:29:00,
2013-02-23 04:34:00,21.1,19.9,29.84,West,278,1.0,3.0,95,0.00,,OVC010,0.00,VWS V14.01,2013-02-23 10:34:00,
2013-02-23 04:39:00,21.1,19.9,29.84,West,269,1.0,3.0,95,0.00,,OVC010,0.00,VWS V14.01,2013-02-23 10:39:00,
2013-02-23 04:44:00,21.2,20.0,29.84,West,262,2.0,3.0,95,0.00,,OVC010,0.00,VWS V14.01,2013-02-23 10:44:00,
2013-02-23 04:49:00,21.2,20.0,29.84,West,274,2.0,3.0,95,0.00,,OVC012,0.00,VWS V14.01,2013-02-23 10:49:00,
2013-02-23 04:54:00,21.2,20.0,29.84,WNW,284,1.0,3.0,95,0.00,,OVC012,0.00,VWS V14.01,2013-02-23 10:54:00,
2013-02-23 04:59:00,21.2,20.0,29.84,West,281,1.0,2.0,95,0.00,,OVC012,0.00,VWS V14.01,2013-02-23 10:59:00,
2013-02-23 05:04:00,21.2,20.0,29.84,West,277,2.0,2.0,95,0.00,,OVC012,0.00,VWS V14.01,2013-02-23 11:04:00,
2013-02-23 05:09:00,21.2,20.0,29.84,West,263,0.0,2.0,95,0.00,,OVC012,0.00,VWS V14.01,2013-02-23 11:09:00,
2013-02-23 05:14:00,21.2,20.0,29.84,WNW,285,1.0,2.0,95,0.00,,OVC012,0.00,VWS V14.01,2013-02-23 11:14:00,
2013-02-23 05:19:00,21.3,20.1,29.84,West,263,1.0,2.0,95,0.00,,OVC012,0.00,VWS V14.01,2013-02-23 11:19:00,
2013-02-23 05:24:00,21.3,20.1,29.84,WSW,253,2.0,2.0,95,0.00,,OVC012,0.00,VWS V14.01,2013-02-23 11:24:00,
2013-02-23 05:29:00,21.2,20.0,29.85,West,269,2.0,2.0,95,0.00,,OVC012,0.00,VWS V14.01,2013-02-23 11:29:00,
2013-02-23 05:34:00,21.3,20.1,29.85,West,266,1.0,3.0,95,0.00,,OVC010,0.00,VWS V14.01,2013-02-23 11:34:00,
2013-02-23 05:39:00,21.3,20.1,29.85,West,276,2.0,3.0,95,0.00,,OVC010,0.00,VWS V14.01,2013-02-23 11:39:00,
2013-02-23 05:44:00,21.4,20.2,29.85,West,281,1.0,3.0,95,0.00,,OVC010,0.00,VWS V14.01,2013-02-23 11:44:00,
2013-02-23 05:49:00,21.4,20.2,29.85,WNW,283,1.0,3.0,95,0.00,,OVC012,0.00,VWS V14.01,2013-02-23 11:49:00,
2013-02-23 05:54:00,21.5,20.3,29.85,West,281,1.0,3.0,95,0.00,,OVC012,0.00,VWS V14.01,2013-02-23 11:54:00,
2013-02-23 05:59:00,21.6,20.4,29.85,WNW,289,0.0,2.0,95,0.00,,OVC012,0.00,VWS V14.01,2013-02-23 11:59:00,
2013-02-23 06:04:00,21.7,20.5,29.85,West,280,1.0,2.0,95,0.00,,OVC012,0.00,VWS V14.01,2013-02-23 12:04:00,
2013-02-23 06:09:00,21.8,20.6,29.85,WNW,286,1.0,2.0,95,0.00,,OVC012,0.00,VWS V14.01,2013-02-23 12:09:00,
2013-02-23 06:14:00,21.9,20.7,29.85,WNW,282,1.0,2.0,95,0.00,,OVC012,0.00,VWS V14.01,2013-02-23 12:14:00,
2013-02-23 06:19:00,22.0,20.8,29.85,WNW,284,1.0,2.0,95,0.00,,OVC012,0.00,VWS V14.01,2013-02-23 12:19:00,
2013-02-23 06:24:00,22.0,20.8,29.85,West,277,1.0,2.0,95,0.00,,OVC012,0.00,VWS V14.01,2013-02-23 12:24:00,
2013-02-23 06:29:00,22.1,20.9,29.85,WNW,287,1.0,2.0,95,0.00,,OVC012,0.00,VWS V14.01,2013-02-23 12:29:00,
2013-02-23 06:34:00,22.2,21.0,29.85,WNW,290,1.0,3.0,95,0.00,,OVC014,0.00,VWS V14.01,2013-02-23 12:34:00,
2013-02-23 06:39:00,22.3,21.1,29.85,West,281,1.0,3.0,95,0.00,,OVC014,0.00,VWS V14.01,2013-02-23 12:39:00,
2013-02-23 06:44:00,22.4,21.2,29.85,WNW,285,2.0,3.0,95,0.00,,OVC014,0.00,VWS V14.01,2013-02-23 12:44:00,
2013-02-23 06:49:00,22.6,21.4,29.85,West,274,2.0,3.0,95,0.00,,OVC014,0.00,VWS V14.01,2013-02-23 12:49:00,
2013-02-23 06:54:00,22.7,21.5,29.85,West,273,3.0,3.0,95,0.00,,OVC014,0.00,VWS V14.01,2013-02-23 12:54:00,
2013-02-23 06:59:00,22.8,21.6,29.85,West,276,1.0,2.0,95,0.00,,OVC014,0.00,VWS V14.01,2013-02-23 12:59:00,
2013-02-23 07:04:00,22.8,21.6,29.85,West,281,2.0,3.0,95,0.00,,OVC014,0.00,VWS V14.01,2013-02-23 13:04:00,
2013-02-23 07:09:00,22.9,21.7,29.85,West,278,1.0,3.0,95,0.00,,OVC014,0.00,VWS V14.01,2013-02-23 13:09:00,
2013-02-23 07:14:00,22.9,21.7,29.86,West,281,3.0,3.0,95,0.00,,OVC014,0.00,VWS V14.01,2013-02-23 13:14:00,
2013-02-23 07:19:00,23.0,21.8,29.86,West,273,1.0,3.0,95,0.00,,OVC012,0.00,VWS V14.01,2013-02-23 13:19:00,
2013-02-23 07:24:00,22.9,21.7,29.85,West,278,2.0,3.0,95,0.00,,OVC012,0.00,VWS V14.01,2013-02-23 13:24:00,
2013-02-23 07:29:00,22.9,21.7,29.85,West,281,1.0,2.0,95,0.00,,OVC012,0.00,VWS V14.01,2013-02-23 13:29:00,
2013-02-23 07:34:00,23.0,21.8,29.85,WNW,284,2.0,2.0,95,0.00,,OVC012,0.00,VWS V14.01,2013-02-23 13:34:00,
2013-02-23 07:39:00,23.1,21.9,29.85,West,277,3.0,3.0,95,0.00,,OVC012,0.00,VWS V14.01,2013-02-23 13:39:00,
2013-02-23 07:44:00,23.1,21.9,29.85,West,278,1.0,3.0,95,0.00,,OVC012,0.00,VWS V14.01,2013-02-23 13:44:00,
2013-02-23 07:49:00,23.2,22.0,29.85,West,278,2.0,4.0,95,0.00,,OVC012,0.00,VWS V14.01,2013-02-23 13:49:00,
2013-02-23 07:54:00,23.3,22.1,29.85,West,270,3.0,5.0,95,0.00,,OVC012,0.00,VWS V14.01,2013-02-23 13:54:00,
2013-02-23 07:59:00,23.3,22.1,29.85,WNW,285,2.0,4.0,95,0.00,,OVC012,0.00,VWS V14.01,2013-02-23 13:59:00,
2013-02-23 08:04:00,23.4,22.2,29.85,West,278,1.0,5.0,95,0.00,,OVC012,0.00,VWS V14.01,2013-02-23 14:04:00,
2013-02-23 08:09:00,23.5,22.3,29.85,West,281,2.0,5.0,95,0.00,,OVC012,0.00,VWS V14.01,2013-02-23 14:09:00,
2013-02-23 08:14:00,23.6,22.4,29.85,WNW,290,2.0,5.0,95,0.00,,OVC012,0.00,VWS V14.01,2013-02-23 14:14:00,
2013-02-23 08:19:00,23.8,22.6,29.85,WNW,291,1.0,5.0,95,0.00,,OVC014,0.00,VWS V14.01,2013-02-23 14:19:00,
2013-02-23 08:24:00,23.9,22.7,29.85,NW,311,1.0,5.0,95,0.00,,OVC014,0.00,VWS V14.01,2013-02-23 14:24:00,
2013-02-23 08:29:00,24.0,22.8,29.85,WNW,289,1.0,2.0,95,0.00,,OVC014,0.00,VWS V14.01,2013-02-23 14:29:00,
2013-02-23 08:34:00,24.2,23.0,29.86,WNW,289,2.0,3.0,95,0.00,,OVC014,0.00,VWS V14.01,2013-02-23 14:34:00,
2013-02-23 08:39:00,24.3,23.1,29.86,WNW,291,1.0,4.0,95,0.00,,OVC014,0.00,VWS V14.01,2013-02-23 14:39:00,
2013-02-23 08:44:00,24.3,23.1,29.86,West,271,1.0,4.0,95,0.00,,OVC014,0.00,VWS V14.01,2013-02-23 14:44:00,
2013-02-23 08:49:00,24.4,23.2,29.86,WNW,291,1.0,4.0,95,0.00,,OVC016,0.00,VWS V14.01,2013-02-23 14:49:00,
2013-02-23 08:54:00,24.6,23.4,29.85,WNW,302,1.0,4.0,95,0.00,,OVC016,0.00,VWS V14.01,2013-02-23 14:54:00,
2013-02-23 08:59:00,24.7,23.5,29.86,WNW,288,1.0,1.0,95,0.00,,OVC016,0.00,VWS V14.01,2013-02-23 14:59:00,
2013-02-23 09:04:00,24.8,23.6,29.86,NW,307,0.0,3.0,95,0.00,,OVC016,0.00,VWS V14.01,2013-02-23 15:04:00,
2013-02-23 09:09:00,25.2,24.0,29.86,NNW,334,0.0,3.0,95,0.00,,OVC016,0.00,VWS V14.01,2013-02-23 15:09:00,
2013-02-23 09:14:00,25.4,24.2,29.86,NW,311,0.0,3.0,95,0.00,,OVC016,0.00,VWS V14.01,2013-02-23 15:14:00,
2013-02-23 09:19:00,25.7,24.2,29.86,West,280,1.0,3.0,94,0.00,,OVC012,0.00,VWS V14.01,2013-02-23 15:19:00,
2013-02-23 09:25:00,25.8,24.3,29.87,WNW,285,1.0,3.0,94,0.00,,OVC012,0.00,VWS V14.01,2013-02-23 15:25:00,
2013-02-23 09:30:00,25.9,24.2,29.86,West,276,2.0,3.0,93,0.00,,OVC012,0.00,VWS V14.01,2013-02-23 15:30:00,
2013-02-23 09:35:00,25.9,24.2,29.87,WNW,299,1.0,3.0,93,0.00,,OVC023,0.00,VWS V14.01,2013-02-23 15:35:00,
2013-02-23 09:40:00,26.1,24.4,29.87,WNW,298,0.0,3.0,93,0.00,,OVC023,0.00,VWS V14.01,2013-02-23 15:40:00,
2013-02-23 09:45:00,26.3,24.6,29.87,WNW,293,1.0,3.0,93,0.00,,OVC023,0.00,VWS V14.01,2013-02-23 15:45:00,
2013-02-23 09:50:00,26.5,24.5,29.87,NW,313,1.0,3.0,92,0.00,,OVC022,0.00,VWS V14.01,2013-02-23 15:50:00,
2013-02-23 09:55:00,26.5,24.5,29.87,West,277,1.0,3.0,92,0.00,,OVC022,0.00,VWS V14.01,2013-02-23 15:55:00,
2013-02-23 10:00:00,26.8,24.8,29.87,NNW,331,0.0,2.0,92,0.00,,OVC022,0.00,VWS V14.01,2013-02-23 16:00:00,
2013-02-23 10:05:00,27.0,24.7,29.87,WNW,287,1.0,2.0,91,0.00,,OVC019,0.00,VWS V14.01,2013-02-23 16:05:00,
2013-02-23 10:10:00,27.2,24.9,29.87,WNW,293,1.0,2.0,91,0.00,,OVC022,0.00,VWS V14.01,2013-02-23 16:10:00,
2013-02-23 10:15:00,27.4,24.9,29.87,NNW,330,0.0,3.0,90,0.00,,OVC022,0.00,VWS V14.01,2013-02-23 16:15:00,
2013-02-23 10:20:00,27.8,25.2,29.87,WNW,283,1.0,3.0,90,0.00,,OVC022,0.00,VWS V14.01,2013-02-23 16:20:00,
2013-02-23 10:25:00,27.8,25.0,29.87,NNW,338,1.0,3.0,89,0.00,,OVC022,0.00,VWS V14.01,2013-02-23 16:25:00,
2013-02-23 10:30:00,27.9,25.1,29.87,NW,307,1.0,3.0,89,0.00,,OVC022,0.00,VWS V14.01,2013-02-23 16:30:00,
2013-02-23 10:35:00,27.9,24.8,29.87,WNW,284,1.0,4.0,88,0.00,,OVC030,0.00,VWS V14.01,2013-02-23 16:35:00,
2013-02-23 10:40:00,27.8,24.7,29.87,NW,305,1.0,4.0,88,0.00,,OVC030,0.00,VWS V14.01,2013-02-23 16:40:00,
2013-02-23 10:45:00,28.1,25.0,29.87,WNW,295,1.0,4.0,88,0.00,,OVC030,0.00,VWS V14.01,2013-02-23 16:45:00,
2013-02-23 10:50:00,28.5,25.4,29.88,NW,309,1.0,4.0,88,0.00,,OVC030,0.00,VWS V14.01,2013-02-23 16:50:00,
2013-02-23 10:55:00,28.7,25.3,29.87,WNW,292,1.0,4.0,87,0.00,,OVC030,0.00,VWS V14.01,2013-02-23 16:55:00,
2013-02-23 11:00:00,28.9,25.2,29.87,NW,318,2.0,3.0,86,0.00,,OVC030,0.00,VWS V14.01,2013-02-23 17:00:00,
2013-02-23 11:05:00,29.0,25.1,29.87,NW,308,1.0,3.0,85,0.00,,OVC030,0.00,VWS V14.01,2013-02-23 17:05:00,
2013-02-23 11:10:00,29.1,25.2,29.87,WNW,287,2.0,3.0,85,0.00,,OVC019,0.00,VWS V14.01,2013-02-23 17:10:00,
2013-02-23 11:15:00,29.1,24.9,29.87,NW,309,2.0,4.0,84,0.00,,OVC019,0.00,VWS V14.01,2013-02-23 17:15:00,
2013-02-23 11:20:00,29.6,25.4,29.87,NW,315,2.0,4.0,84,0.00,,OVC030,0.00,VWS V14.01,2013-02-23 17:20:00,
2013-02-23 11:25:00,29.7,25.2,29.87,NW,325,2.0,4.0,83,0.00,,OVC030,0.00,VWS V14.01,2013-02-23 17:25:00,
2013-02-23 11:30:00,29.7,24.9,29.87,WNW,295,3.0,4.0,82,0.00,,OVC030,0.00,VWS V14.01,2013-02-23 17:30:00,
2013-02-23 11:35:00,29.6,24.8,29.87,NW,305,3.0,6.0,82,0.00,,OVC030,0.00,VWS V14.01,2013-02-23 17:35:00,
2013-02-23 11:40:00,29.4,24.6,29.87,WNW,285,3.0,6.0,82,0.00,,OVC030,0.00,VWS V14.01,2013-02-23 17:40:00,
2013-02-23 11:45:00,29.7,25.2,29.87,NW,315,1.0,6.0,83,0.00,,OVC030,0.00,VWS V14.01,2013-02-23 17:45:00,
2013-02-23 11:50:00,30.1,25.0,29.87,WNW,292,3.0,6.0,81,0.00,,OVC030,0.00,VWS V14.01,2013-02-23 17:50:00,
2013-02-23 11:55:00,30.2,25.1,29.87,WNW,285,3.0,6.0,81,0.00,,OVC030,0.00,VWS V14.01,2013-02-23 17:55:00,
2013-02-23 12:00:00,30.2,25.1,29.87,WNW,294,3.0,4.0,81,0.00,,OVC030,0.00,VWS V14.01,2013-02-23 18:00:00,
2013-02-23 12:05:00,30.5,25.1,29.86,West,275,2.0,4.0,80,0.00,,OVC030,0.00,VWS V14.01,2013-02-23 18:05:00,
2013-02-23 12:10:00,31.1,25.7,29.86,WNW,284,2.0,4.0,80,0.00,,OVC030,0.00,VWS V14.01,2013-02-23 18:10:00,
2013-02-23 12:15:00,31.0,25.0,29.87,WNW,298,1.0,4.0,78,0.00,,OVC030,0.00,VWS V14.01,2013-02-23 18:15:00,
2013-02-23 12:20:00,31.2,25.5,29.87,NW,326,2.0,4.0,79,0.00,,OVC030,0.00,VWS V14.01,2013-02-23 18:20:00,
2013-02-23 12:25:00,31.4,25.4,29.87,NW,309,2.0,4.0,78,0.00,,OVC030,0.00,VWS V14.01,2013-02-23 18:25:00,
2013-02-23 12:30:00,31.4,25.4,29.87,WNW,293,2.0,2.0,78,0.00,,OVC030,0.00,VWS V14.01,2013-02-23 18:30:00,
2013-02-23 12:35:00,31.2,25.1,29.86,WNW,285,2.0,5.0,78,0.00,,OVC030,0.00,VWS V14.01,2013-02-23 18:35:00,
2013-02-23 12:40:00,30.9,24.9,29.86,WNW,293,0.0,5.0,78,0.00,,OVC030,0.00,VWS V14.01,2013-02-23 18:40:00,
2013-02-23 12:45:00,31.1,25.0,29.86,NW,311,1.0,5.0,78,0.00,,OVC030,0.00,VWS V14.01,2013-02-23 18:45:00,
2013-02-23 12:50:00,31.4,25.4,29.86,West,276,3.0,5.0,78,0.00,,OVC032,0.00,VWS V14.01,2013-02-23 18:50:00,
2013-02-23 12:55:00,31.5,25.4,29.86,NW,318,2.0,5.0,78,0.00,,OVC032,0.00,VWS V14.01,2013-02-23 18:55:00,
2013-02-23 13:00:00,31.7,25.3,29.86,West,270,1.0,2.0,77,0.00,,OVC032,0.00,VWS V14.01,2013-02-23 19:00:00,
2013-02-23 13:05:00,31.9,25.5,29.86,NW,304,1.0,3.0,77,0.00,,OVC032,0.00,VWS V14.01,2013-02-23 19:05:00,
2013-02-23 13:10:00,32.1,25.7,29.86,West,270,1.0,3.0,77,0.00,,OVC032,0.00,VWS V14.01,2013-02-23 19:10:00,
2013-02-23 13:15:00,32.5,25.8,29.86,NW,309,1.0,4.0,76,0.00,,OVC032,0.00,VWS V14.01,2013-02-23 19:15:00,
2013-02-23 13:20:00,32.7,26.0,29.85,NW,315,1.0,4.0,76,0.00,,OVC032,0.00,VWS V14.01,2013-02-23 19:20:00,
2013-02-23 13:25:00,32.7,25.3,29.85,WNW,300,2.0,4.0,74,0.00,,OVC032,0.00,VWS V14.01,2013-02-23 19:25:00,
2013-02-23 13:30:00,32.6,25.6,29.85,West,271,2.0,3.0,75,0.00,,OVC032,0.00,VWS V14.01,2013-02-23 19:30:00,
2013-02-23 13:35:00,32.8,25.8,29.85,NNW,340,0.0,4.0,75,0.01,,BKN032,0.01,VWS V14.01,2013-02-23 19:35:00,
2013-02-23 13:40:00,33.1,25.4,29.85,WNW,284,1.0,4.0,73,0.01,,BKN032,0.01,VWS V14.01,2013-02-23 19:40:00,
2013-02-23 13:45:00,33.2,25.8,29.85,West,280,1.0,4.0,74,0.02,,BKN032,0.02,VWS V14.01,2013-02-23 19:45:00,
2013-02-23 13:50:00,33.1,25.1,29.85,WNW,287,1.0,4.0,72,0.02,,SCT032,0.02,VWS V14.01,2013-02-23 19:50:00,
2013-02-23 13:55:00,33.3,25.3,29.85,WNW,293,1.0,4.0,72,0.02,,SCT032,0.02,VWS V14.01,2013-02-23 19:55:00,
2013-02-23 14:00:00,33.5,25.5,29.85,NW,310,2.0,2.0,72,0.03,,SCT032,0.03,VWS V14.01,2013-02-23 20:00:00,
2013-02-23 14:05:00,33.9,25.8,29.85,WNW,290,1.0,3.0,72,0.03,,SCT032,0.03,VWS V14.01,2013-02-23 20:05:00,
2013-02-23 14:10:00,34.3,25.9,29.85,NW,312,1.0,4.0,71,0.03,,SCT032,0.03,VWS V14.01,2013-02-23 20:10:00,
2013-02-23 14:15:00,34.5,25.7,29.85,West,278,2.0,4.0,70,0.03,,SCT032,0.03,VWS V14.01,2013-02-23 20:15:00,
2013-02-23 14:20:00,34.4,25.6,29.85,North,349,3.0,4.0,70,0.04,,SCT032,0.04,VWS V14.01,2013-02-23 20:20:00,
2013-02-23 14:25:00,34.2,24.8,29.85,WNW,290,1.0,4.0,68,0.04,,SCT032,0.04,VWS V14.01,2013-02-23 20:25:00,
2013-02-23 14:30:00,33.6,24.9,29.85,WNW,297,0.0,1.0,70,0.04,,SCT032,0.04,VWS V14.01,2013-02-23 20:30:00,
2013-02-23 14:35:00,33.4,24.7,29.85,NNW,335,2.0,2.0,70,0.04,,CLR,0.04,VWS V14.01,2013-02-23 20:35:00,
2013-02-23 14:40:00,33.2,24.5,29.85,NW,310,1.0,2.0,70,0.04,,CLR,0.04,VWS V14.01,2013-02-23 20:40:00,
2013-02-23 14:45:00,33.6,25.5,29.85,WNW,302,1.0,2.0,72,0.05,,CLR,0.05,VWS V14.01,2013-02-23 20:45:00,
2013-02-23 14:50:00,33.7,25.0,29.85,WNW,283,1.0,2.0,70,0.05,,CLR,0.05,VWS V14.01,2013-02-23 20:50:00,
2013-02-23 14:55:00,33.8,25.1,29.85,NW,316,0.0,3.0,70,0.05,,CLR,0.05,VWS V14.01,2013-02-23 20:55:00,
2013-02-23 15:00:00,34.1,25.4,29.85,ENE,74,0.0,3.0,70,0.03,,SCT090,0.05,VWS V14.01,2013-02-23 21:00:00,
2013-02-23 15:05:00,34.5,24.7,29.85,WNW,299,0.0,4.0,67,0.03,,SCT090,0.05,VWS V14.01,2013-02-23 21:05:00,
2013-02-23 15:10:00,34.9,25.1,29.85,NW,305,2.0,4.0,67,0.03,,SCT090,0.05,VWS V14.01,2013-02-23 21:10:00,
2013-02-23 15:15:00,34.3,24.5,29.85,West,274,4.0,4.0,67,0.04,,SCT090,0.06,VWS V14.01,2013-02-23 21:15:00,
2013-02-23 15:20:00,34.0,24.6,29.85,WNW,294,1.0,4.0,68,0.04,,SCT090,0.06,VWS V14.01,2013-02-23 21:20:00,
2013-02-23 15:25:00,34.2,24.8,29.85,West,281,1.0,4.0,68,0.04,,SCT090,0.06,VWS V14.01,2013-02-23 21:25:00,
2013-02-23 15:30:00,34.7,24.9,29.85,West,274,2.0,4.0,67,0.02,,SCT090,0.06,VWS V14.01,2013-02-23 21:30:00,
2013-02-23 15:35:00,34.9,25.1,29.85,North,4,2.0,4.0,67,0.02,,BKN090,0.06,VWS V14.01,2013-02-23 21:35:00,
2013-02-23 15:40:00,35.3,24.7,29.85,WNW,288,2.0,4.0,65,0.02,,BKN090,0.06,VWS V14.01,2013-02-23 21:40:00,
2013-02-23 15:45:00,34.7,24.5,29.85,West,281,4.0,6.0,66,0.03,,BKN090,0.07,VWS V14.01,2013-02-23 21:45:00,
2013-02-23 15:50:00,34.6,24.8,29.85,WNW,287,3.0,6.0,67,0.03,,BKN090,0.07,VWS V14.01,2013-02-23 21:50:00,
2013-02-23 15:55:00,34.4,24.2,29.85,West,276,3.0,6.0,66,0.03,,BKN090,0.07,VWS V14.01,2013-02-23 21:55:00,
2013-02-23 16:00:00,34.0,24.9,29.85,WNW,291,1.0,4.0,69,0.02,,BKN090,0.07,VWS V14.01,2013-02-23 22:00:00,
2013-02-23 16:05:00,34.3,24.5,29.85,West,269,4.0,4.0,67,0.02,,BKN090,0.07,VWS V14.01,2013-02-23 22:05:00,
2013-02-23 16:10:00,34.3,25.2,29.86,West,270,1.0,4.0,69,0.02,,BKN090,0.07,VWS V14.01,2013-02-23 22:10:00,
2013-02-23 16:15:00,33.8,24.0,29.86,WNW,295,2.0,4.0,67,0.02,,BKN090,0.07,VWS V14.01,2013-02-23 22:15:00,
2013-02-23 16:20:00,33.4,24.3,29.86,NW,309,1.0,4.0,69,0.02,,BKN090,0.07,VWS V14.01,2013-02-23 22:20:00,
2013-02-23 16:25:00,33.2,24.1,29.86,WNW,299,0.0,4.0,69,0.02,,BKN090,0.07,VWS V14.01,2013-02-23 22:25:00,
2013-02-23 16:30:00,33.0,24.0,29.86,WNW,298,0.0,1.0,69,0.01,,BKN090,0.07,VWS V14.01,2013-02-23 22:30:00,
2013-02-23 16:35:00,32.9,24.2,29.86,WNW,298,1.0,1.0,70,0.01,,BKN029,0.07,VWS V14.01,2013-02-23 22:35:00,
2013-02-23 16:40:00,32.9,24.5,29.86,WNW,298,0.0,1.0,71,0.01,,BKN029,0.07,VWS V14.01,2013-02-23 22:40:00,
2013-02-23 16:45:00,32.7,24.0,29.86,WNW,298,0.0,1.0,70,0.01,,BKN029,0.07,VWS V14.01,2013-02-23 22:45:00,
2013-02-23 16:49:00,32.7,24.0,29.86,WNW,298,0.0,1.0,70,0.01,,SCT029,0.07,VWS V14.01,2013-02-23 22:49:00,
2013-02-23 16:55:00,32.5,23.8,29.86,WNW,298,0.0,1.0,70,0.01,,SCT029,0.07,VWS V14.01,2013-02-23 22:55:00,
2013-02-23 17:00:00,32.4,23.7,29.86,WNW,298,0.0,0.0,70,0.00,,SCT029,0.07,VWS V14.01,2013-02-23 23:00:00,
2013-02-23 17:05:00,32.1,23.8,29.86,WNW,298,1.0,1.0,71,0.00,,SCT029,0.07,VWS V14.01,2013-02-23 23:05:00,
2013-02-23 17:09:00,31.9,23.6,29.86,West,262,1.0,2.0,71,0.00,,SCT029,0.07,VWS V14.01,2013-02-23 23:09:00,
2013-02-23 17:14:00,31.7,23.7,29.86,WSW,255,1.0,2.0,72,0.00,,SCT029,0.07,VWS V14.01,2013-02-23 23:14:00,
2013-02-23 17:19:00,31.6,23.6,29.87,WSW,252,1.0,2.0,72,0.00,,BKN029,0.07,VWS V14.01,2013-02-23 23:19:00,
2013-02-23 17:24:00,31.7,23.4,29.87,WSW,253,2.0,2.0,71,0.00,,BKN029,0.07,VWS V14.01,2013-02-23 23:24:00,
2013-02-23 17:30:00,31.6,24.0,29.87,WSW,250,1.0,2.0,73,0.00,,BKN029,0.07,VWS V14.01,2013-02-23 23:30:00,
2013-02-23 17:35:00,31.6,24.0,29.87,West,259,1.0,2.0,73,0.00,,BKN031,0.07,VWS V14.01,2013-02-23 23:35:00,
2013-02-23 17:39:00,31.6,24.3,29.87,West,259,0.0,2.0,74,0.00,,BKN031,0.07,VWS V14.01,2013-02-23 23:39:00,
2013-02-23 17:44:00,31.6,24.3,29.87,West,259,1.0,2.0,74,0.00,,BKN031,0.07,VWS V14.01,2013-02-23 23:44:00,
2013-02-23 17:49:00,31.5,24.5,29.87,West,259,1.0,2.0,75,0.00,,OVC031,0.07,VWS V14.01,2013-02-23 23:49:00,
2013-02-23 17:54:00,31.4,24.4,29.87,WSW,245,1.0,2.0,75,0.00,,OVC031,0.07,VWS V14.01,2013-02-23 23:54:00,
2013-02-23 17:59:00,31.3,24.3,29.87,SW,226,1.0,1.0,75,0.00,,OVC031,0.07,VWS V14.01,2013-02-23 23:59:00,
2013-02-23 18:04:00,31.2,24.2,29.88,SW,226,0.0,1.0,75,0.00,,OVC031,0.07,VWS V14.01,2013-02-24 00:04:00,
2013-02-23 18:09:00,31.1,24.1,29.88,SW,226,1.0,1.0,75,0.00,,OVC031,0.07,VWS V14.01,2013-02-24 00:09:00,
2013-02-23 18:14:00,31.0,24.3,29.88,SW,227,1.0,1.0,76,0.00,,OVC031,0.07,VWS V14.01,2013-02-24 00:14:00,
2013-02-23 18:19:00,30.9,24.2,29.88,West,262,1.0,2.0,76,0.00,,OVC031,0.07,VWS V14.01,2013-02-24 00:19:00,
2013-02-23 18:24:00,30.9,23.9,29.88,West,263,2.0,2.0,75,0.00,,OVC031,0.07,VWS V14.01,2013-02-24 00:24:00,
2013-02-23 18:29:00,31.1,24.1,29.88,West,270,1.0,2.0,75,0.00,,OVC031,0.07,VWS V14.01,2013-02-24 00:29:00,
2013-02-23 18:34:00,31.1,24.1,29.88,West,278,1.0,2.0,75,0.00,,OVC031,0.07,VWS V14.01,2013-02-24 00:34:00,
2013-02-23 18:39:00,31.0,24.0,29.88,West,263,1.0,2.0,75,0.00,,OVC031,0.07,VWS V14.01,2013-02-24 00:39:00,
2013-02-23 18:44:00,31.1,24.1,29.89,West,259,2.0,4.0,75,0.00,,OVC031,0.07,VWS V14.01,2013-02-24 00:44:00,
2013-02-23 18:49:00,31.0,24.0,29.89,West,271,2.0,4.0,75,0.00,,OVC033,0.07,VWS V14.01,2013-02-24 00:49:00,
2013-02-23 18:54:00,31.0,24.0,29.89,West,262,2.0,4.0,75,0.00,,OVC033,0.07,VWS V14.01,2013-02-24 00:54:00,
2013-02-23 18:59:00,31.0,24.0,29.89,West,261,2.0,3.0,75,0.00,,OVC033,0.07,VWS V14.01,2013-02-24 00:59:00,
2013-02-23 19:04:00,30.9,23.9,29.89,West,271,1.0,3.0,75,0.00,,OVC033,0.07,VWS V14.01,2013-02-24 01:04:00,
2013-02-23 19:09:00,30.9,23.9,29.90,WSW,246,2.0,3.0,75,0.00,,OVC033,0.07,VWS V14.01,2013-02-24 01:09:00,
2013-02-23 19:14:00,30.8,23.8,29.90,West,281,1.0,3.0,75,0.00,,OVC033,0.07,VWS V14.01,2013-02-24 01:14:00,
2013-02-23 19:19:00,30.7,24.0,29.90,WNW,295,0.0,3.0,76,0.00,,OVC033,0.07,VWS V14.01,2013-02-24 01:19:00,
2013-02-23 19:24:00,30.7,24.0,29.90,WNW,288,1.0,3.0,76,0.00,,OVC033,0.07,VWS V14.01,2013-02-24 01:24:00,
2013-02-23 19:29:00,30.6,24.0,29.90,West,281,1.0,3.0,76,0.00,,OVC033,0.07,VWS V14.01,2013-02-24 01:29:00,
2013-02-23 19:34:00,30.7,24.0,29.90,West,271,3.0,4.0,76,0.00,,OVC033,0.07,VWS V14.01,2013-02-24 01:34:00,
2013-02-23 19:39:00,30.7,23.7,29.90,West,278,3.0,4.0,75,0.00,,OVC033,0.07,VWS V14.01,2013-02-24 01:39:00,
2013-02-23 19:44:00,30.7,23.7,29.90,WNW,285,1.0,4.0,75,0.00,,OVC033,0.07,VWS V14.01,2013-02-24 01:44:00,
2013-02-23 19:49:00,30.6,23.6,29.91,West,269,2.0,4.0,75,0.00,,OVC033,0.07,VWS V14.01,2013-02-24 01:49:00,
2013-02-23 19:54:00,30.6,23.6,29.91,West,274,2.0,4.0,75,0.00,,OVC033,0.07,VWS V14.01,2013-02-24 01:54:00,
2013-02-23 19:59:00,30.6,23.6,29.91,WSW,250,3.0,3.0,75,0.00,,OVC033,0.07,VWS V14.01,2013-02-24 01:59:00,
2013-02-23 20:04:00,30.4,23.8,29.91,WSW,250,3.0,3.0,76,0.00,,OVC033,0.07,VWS V14.01,2013-02-24 02:04:00,
2013-02-23 20:09:00,30.1,24.1,29.91,WSW,249,1.0,3.0,78,0.00,,OVC033,0.07,VWS V14.01,2013-02-24 02:09:00,
2013-02-23 20:14:00,29.8,24.1,29.91,WSW,240,2.0,3.0,79,0.00,,OVC033,0.07,VWS V14.01,2013-02-24 02:14:00,
2013-02-23 20:19:00,29.7,24.3,29.91,WSW,252,3.0,4.0,80,0.00,,OVC033,0.07,VWS V14.01,2013-02-24 02:19:00,
2013-02-23 20:24:00,29.4,24.3,29.91,WSW,252,2.0,4.0,81,0.00,,OVC033,0.07,VWS V14.01,2013-02-24 02:24:00,
2013-02-23 20:29:00,29.2,24.1,29.91,WSW,255,2.0,4.0,81,0.00,,OVC033,0.07,VWS V14.01,2013-02-24 02:29:00,
2013-02-23 20:34:00,29.0,23.9,29.91,West,262,3.0,4.0,81,0.00,,OVC033,0.07,VWS V14.01,2013-02-24 02:34:00,
2013-02-23 20:39:00,28.8,23.7,29.91,WSW,250,4.0,4.0,81,0.00,,OVC033,0.07,VWS V14.01,2013-02-24 02:39:00,
2013-02-23 20:44:00,28.7,23.9,29.91,WSW,245,2.0,4.0,82,0.00,,OVC033,0.07,VWS V14.01,2013-02-24 02:44:00,
2013-02-23 20:49:00,28.6,23.8,29.91,WSW,256,2.0,4.0,82,0.00,,OVC033,0.07,VWS V14.01,2013-02-24 02:49:00,
2013-02-23 20:54:00,28.4,23.6,29.91,West,267,2.0,4.0,82,0.00,,OVC033,0.07,VWS V14.01,2013-02-24 02:54:00,
2013-02-23 20:59:00,28.3,23.5,29.91,West,264,4.0,5.0,82,0.00,,OVC033,0.07,VWS V14.01,2013-02-24 02:59:00,
2013-02-23 21:04:00,28.4,23.6,29.92,West,265,4.0,5.0,82,0.00,,OVC033,0.07,VWS V14.01,2013-02-24 03:04:00,
2013-02-23 21:09:00,28.3,23.5,29.92,West,273,4.0,5.0,82,0.00,,OVC033,0.07,VWS V14.01,2013-02-24 03:09:00,
2013-02-23 21:14:00,28.2,23.4,29.92,West,274,4.0,7.0,82,0.00,,OVC033,0.07,VWS V14.01,2013-02-24 03:14:00,
2013-02-23 21:19:00,28.2,23.7,29.92,West,276,4.0,7.0,83,0.00,,OVC033,0.07,VWS V14.01,2013-02-24 03:19:00,
2013-02-23 21:24:00,28.2,23.4,29.92,West,277,3.0,7.0,82,0.00,,OVC033,0.07,VWS V14.01,2013-02-24 03:24:00,
2013-02-23 21:29:00,28.1,23.3,29.92,West,277,4.0,5.0,82,0.00,,OVC033,0.07,VWS V14.01,2013-02-24 03:29:00,
2013-02-23 21:34:00,28.0,23.2,29.92,WSW,255,3.0,6.0,82,0.00,,OVC033,0.07,VWS V14.01,2013-02-24 03:34:00,
2013-02-23 21:39:00,27.7,23.2,29.92,WSW,256,4.0,6.0,83,0.00,,OVC033,0.07,VWS V14.01,2013-02-24 03:39:00,
2013-02-23 21:44:00,27.5,23.0,29.92,WSW,256,3.0,6.0,83,0.00,,OVC033,0.07,VWS V14.01,2013-02-24 03:44:00,
2013-02-23 21:49:00,27.2,22.7,29.92,West,278,4.0,7.0,83,0.00,,SCT031,0.07,VWS V14.01,2013-02-24 03:49:00,
2013-02-23 21:54:00,26.9,22.7,29.93,WSW,252,3.0,7.0,84,0.00,,SCT031,0.07,VWS V14.01,2013-02-24 03:54:00,
2013-02-23 21:59:00,26.6,22.4,29.93,West,269,5.0,6.0,84,0.00,,SCT031,0.07,VWS V14.01,2013-02-24 03:59:00,
2013-02-23 22:04:00,26.3,22.1,29.93,West,267,3.0,6.0,84,0.00,,SCT031,0.07,VWS V14.01,2013-02-24 04:04:00,
2013-02-23 22:09:00,26.1,21.9,29.93,WSW,238,2.0,6.0,84,0.00,,SCT031,0.07,VWS V14.01,2013-02-24 04:09:00,
2013-02-23 22:14:00,25.9,22.0,29.93,WSW,250,2.0,6.0,85,0.00,,SCT031,0.07,VWS V14.01,2013-02-24 04:14:00,
2013-02-23 22:19:00,25.6,21.5,29.93,West,269,3.0,6.0,84,0.00,,SCT031,0.07,VWS V14.01,2013-02-24 04:19:00,
2013-02-23 22:24:00,25.3,21.4,29.93,West,265,2.0,6.0,85,0.00,,SCT031,0.07,VWS V14.01,2013-02-24 04:24:00,
2013-02-23 22:29:00,25.2,21.3,29.94,WSW,252,3.0,3.0,85,0.00,,SCT031,0.07,VWS V14.01,2013-02-24 04:29:00,
2013-02-23 22:34:00,25.0,21.1,29.94,West,263,2.0,4.0,85,0.00,,CLR,0.07,VWS V14.01,2013-02-24 04:34:00,
2013-02-23 22:39:00,24.8,20.9,29.94,WSW,245,3.0,4.0,85,0.00,,CLR,0.07,VWS V14.01,2013-02-24 04:39:00,
2013-02-23 22:44:00,24.8,20.9,29.94,West,269,2.0,4.0,85,0.00,,CLR,0.07,VWS V14.01,2013-02-24 04:44:00,
2013-02-23 22:49:00,24.7,21.1,29.94,WSW,257,1.0,4.0,86,0.00,,CLR,0.07,VWS V14.01,2013-02-24 04:49:00,
2013-02-23 22:54:00,24.7,21.1,29.94,West,266,1.0,4.0,86,0.00,,CLR,0.07,VWS V14.01,2013-02-24 04:54:00,
2013-02-23 22:59:00,24.7,21.1,29.95,West,264,2.0,2.0,86,0.00,,CLR,0.07,VWS V14.01,2013-02-24 04:59:00,
2013-02-23 23:00:00,24.7,21.1,29.95,West,274,3.0,3.0,86,0.00,,CLR,0.07,VWS V14.01,2013-02-24 05:00:00,
2013-02-23 23:05:00,24.8,21.2,29.94,West,264,2.0,4.0,86,0.00,,CLR,0.07,VWS V14.01,2013-02-24 05:05:00,
2013-02-23 23:10:00,24.8,21.2,29.94,West,264,3.0,4.0,86,0.00,,CLR,0.07,VWS V14.01,2013-02-24 05:10:00,
2013-02-23 23:15:00,24.8,20.9,29.95,West,277,3.0,4.0,85,0.00,,CLR,0.07,VWS V14.01,2013-02-24 05:15:00,
2013-02-23 23:20:00,24.8,20.9,29.95,WSW,257,0.0,4.0,85,0.00,,CLR,0.07,VWS V14.01,2013-02-24 05:20:00,
2013-02-23 23:25:00,24.7,20.8,29.95,WSW,254,1.0,4.0,85,0.00,,CLR,0.07,VWS V14.01,2013-02-24 05:25:00,
2013-02-23 23:30:00,24.5,20.6,29.95,WSW,243,2.0,3.0,85,0.00,,CLR,0.07,VWS V14.01,2013-02-24 05:30:00,
2013-02-23 23:35:00,24.3,20.7,29.95,WSW,256,1.0,3.0,86,0.00,,CLR,0.07,VWS V14.01,2013-02-24 05:35:00,
2013-02-23 23:40:00,24.2,20.6,29.95,WSW,251,1.0,3.0,86,0.00,,CLR,0.07,VWS V14.01,2013-02-24 05:40:00,
2013-02-23 23:45:00,24.0,20.4,29.95,WSW,252,3.0,4.0,86,0.00,,CLR,0.07,VWS V14.01,2013-02-24 05:45:00,
2013-02-23 23:50:00,23.9,20.3,29.95,WSW,250,2.0,4.0,86,0.00,,CLR,0.07,VWS V14.01,2013-02-24 05:50:00,
2013-02-23 23:55:00,23.8,20.2,29.95,WSW,252,2.0,4.0,86,0.00,,CLR,0.07,VWS V14.01,2013-02-24 05:55:00,